Overview Statistics Trail Chart Weather Telemetry Raw packets
 

This is the latest recevied weather packets stored in our database for station/object SP5FLS-15. If no packets are shown the sender has not sent any weather packets the latest 10 day(s).

<< 20 21 22 23 24 25 26 >>
Time Temp. Humidity Pressure Rain* Wind** Luminosity Snow
1788279902 17.78° C 51% 1014.3 hPa - - - -
1788279602 17.78° C 58% 1014.3 hPa - - - -
1788279302 17.78° C 61% 1014.4 hPa - - - -
1788279002 17.78° C 58% 1014.4 hPa - - - -
1788278702 17.78° C 56% 1014.3 hPa - - - -
1788278402 17.78° C 46% 1014.3 hPa - - - -
1788278102 17.78° C 55% 1014.2 hPa - - - -
1788277802 17.78° C 66% 1014.1 hPa - - - -
1788277502 18.33° C 60% 1014 hPa - - - -
1788277202 18.33° C 60% 1014.2 hPa - - - -
1788276903 18.33° C 66% 1014.1 hPa - - - -
1788276603 17.78° C 58% 1014 hPa - - - -
1788276302 17.78° C 69% 1014 hPa - - - -
1788276002 17.78° C 69% 1013.9 hPa - - - -
1788275402 18.33° C 75% 1014 hPa - - - -
1788275102 18.33° C 77% 1013.8 hPa - - - -
1788274802 18.33° C 78% 1014 hPa - - - -
1788274502 18.89° C 75% 1013.8 hPa - - - -
1788274202 18.89° C 79% 1013.8 hPa - - - -
1788273902 18.89° C 76% 1013.9 hPa - - - -
1788273603 18.89° C 74% 1014 hPa - - - -
1788273302 18.89° C 72% 1013.9 hPa - - - -
1788273002 18.89° C 72% 1013.8 hPa - - - -
1788272702 18.89° C 79% 1013.6 hPa - - - -
1788272402 18.89° C 77% 1013.7 hPa - - - -

* Rain since midnight (hover to see other rain measurements)
** Current wind speed in m/s (hover to see current wind gust speed)